Regional Weather Roundup
Issued by NWS

Home | Current Version | Previous Version | Graphics & Text | Print | Product List | Glossary On
Versions: 1 2 3 4 5 6 7 8 9 10 11 12 13 14 15 16 17 18 19 20 21 22 23 24 25 26 27 28
000
ASUS45 KSLC 222310
RWRUT

UTAH REGIONAL WEATHER ROUNDUP
NATIONAL WEATHER SERVICE SALT LAKE CITY UT
500 PM MDT FRI SEP 22 2017

UTZ001>011-023>025-230000-

NORTHERN UTAH

CITY           SKY/WX    TMP DP  RH WIND       PRES   REMARKS
BRIGHAM CITY   CLOUDY    51  35  54 W3        29.92S
HILL AFB       PTSUNNY   48  37  65 NW8       29.92S
LOGAN          CLOUDY    51  37  58 N5        29.91S
OGDEN          CLOUDY    49  38  65 VRB7      29.91F
SALT LAKE CITY CLOUDY    52  39  61 NW12      29.93R
TOOELE VALLEY  CLOUDY    50  39  66 N5        29.94R
WENDOVER       CLOUDY    44  38  79 W12       29.98R
HEBER CITY     DRIZZLE   46  34  61 SW9       29.89R
WEST JORDAN    CLOUDY    49  45  87 N10       29.93R

$$

UTZ011>015-024>027-230000-

CENTRAL/NORTHEAST UTAH

CITY           SKY/WX    TMP DP  RH WIND       PRES   REMARKS
PROVO AIRPORT  LGT RAIN  48  43  82 N6        29.93R
MOAB/CANYONLAN MOSUNNY   78  28  16 SW20G26   29.68S
DELTA          CLOUDY    45  39  81 NW15      29.93R
PRICE          CLOUDY    60  33  36 W18G30    29.77R
RICHFIELD        N/A     54  39  58 NE7       29.89R
ROOSEVELT      PTSUNNY   63  32  31 W14       29.80R
VERNAL         SUNNY     67  35  30 W18       29.75R

$$

UTZ013>016-019>022-027-230000-

SOUTHERN UTAH

CITY           SKY/WX    TMP DP  RH WIND       PRES   REMARKS
BRYCE CANYON   SUNNY     56  20  24 SW18      29.91S
CEDAR CITY     SUNNY     60  21  22 SW9G17    29.85S
MILFORD        MOSUNNY   55  40  56 N17       29.87F
ST GEORGE      CLOUDY    72  23  16 W16       29.77F
HANKSVILLE     SUNNY     75  25  15 SW17G32   29.71R
KANAB          SUNNY     68  21  17 W10G22    29.83S
BLANDING         N/A     70  33  24 S20G29    29.90F

$$

REGIONAL REPORTS     COLORADO/ARIZONA

CITY           SKY/WX    TMP DP  RH WIND       PRES   REMARKS
CRAIG, CO      CLOUDY    62  37  39 SW10G24   29.85R
GRAND JUNCTION CLOUDY    75  28  17 SW25G36   29.75S
RIFLE, CO      MOSUNNY   71  30  21 W18       29.79R
MONTROSE, CO   LGT RAIN  68  41  37 S12       29.84S
CORTEZ, CO     MOSUNNY   75  25  15 SW25G37   29.85S
PAGE, AZ       SUNNY     79  19  10 S16       29.70F
GRAND CANYON   SUNNY     65  14  14 SW17G35   29.89F
KINGMAN, AZ    SUNNY     73  18  12 SW16      29.80F
FLAGSTAFF, AZ  MOSUNNY   61  30  31 SW23G32   29.94S

$$

REGIONAL REPORTS    NEVADA/IDAHO/WYOMING

CITY           SKY/WX    TMP DP  RH WIND       PRES   REMARKS
LAS VEGAS, NV  MOSUNNY   74  25  16 VRB6      29.76F
ELY, NY        PTSUNNY   41  34  76 W5        29.97S
ELKO, NV       PTSUNNY   44  34  67 CALM      29.96F
POCATELLO, ID  CLOUDY    46  36  68 S7        29.96S
BURLEY, ID     MOSUNNY   50  33  52 NW6       29.93S
FORT BRIDGER,  LGT RAIN  40  40 100 W16       29.94R WCI  31
EVANSTON, WY   LGT RAIN  40  31  70 SW21G28   29.92R WCI  30
ROCK SPRINGS,  LGT RAIN  46  40  79 N12       29.87R
KEMMERER, WY     N/A     43  30  61 W15G21    29.91R

$$




USA.gov is the U.S. government's official web portal to all federal, state and local government web resources and services.